QPF
0.00 0.00 0.00 0.00 0.00 0.00 0.00 0.00 0.00 0.00 0.00 0.00 0.00 0.00 0.00 0.00 0.00 0.00 0.00 0.00 0.00 0.00 0.00 0.00 0.00 0.00 0.00 0.00 0.00 0.00 0.00 0.00 0.00 0.00 0.00 0.00 0.00 0.00 0.00 0.00 0.00 0.00 0.00 0.00 0.00 0.00 0.00
0.00 0.00 0.00 0.00 0.00 0.00 0.00 0.00 0.00 0.00 0.00 0.00 0.00 0.00 0.00 0.00 0.01 0.01 0.00 0.00 0.00 0.00 0.00 0.00 0.00 0.00 0.00 0.00 0.00 0.00 0.00 0.00 0.00 0.00 0.00 0.00 0.00 0.00 0.00 0.00 0.00 0.00 0.00 0.00 0.00 0.00 0.00
0.00 0.00 0.00 0.00 0.00 0.00 0.00 0.00 0.00 0.00 0.00 0.00 0.00 0.00 0.00 0.00 0.01 0.01 0.01 0.00 0.00 0.00 0.00 0.00 0.00 0.00 0.00 0.00 0.00 0.00 0.00 0.00 0.00 0.00 0.00 0.00 0.00 0.00 0.00 0.00 0.00 0.00 0.00 0.00 0.00 0.00 0.00
0.00 0.00 0.00 0.00 0.00 0.00 0.00 0.00 0.00 0.00 0.00 0.00 0.00 0.00 0.00 0.00 0.00 0.01 0.01 0.00 0.00 0.00 0.00 0.00 0.00 0.00 0.00 0.00 0.00 0.00 0.00 0.00 0.00 0.00 0.00 0.00 0.00 0.00 0.00 0.00 0.00 0.00 0.00 0.00 0.00 0.00 0.00
0.00 0.00 0.00 0.00 0.00 0.00 0.00 0.00 0.00 0.00 0.00 0.00 0.00 0.00 0.00 0.00 0.01 0.01 0.01 0.01 0.01 0.00 0.00 0.00 0.00 0.00 0.00 0.00 0.00 0.00 0.00 0.00 0.00 0.00 0.00 0.00 0.00 0.00 0.00 0.00 0.00 0.00 0.00 0.00 0.00 0.00 0.00
0.00 0.00 0.00 0.00 0.00 0.00 0.00 0.00 0.00 0.00 0.00 0.00 0.00 0.00 0.00 0.00 0.01 0.02 0.03 0.03 0.02 0.01 0.00 0.00 0.00 0.00 0.00 0.00 0.00 0.00 0.00 0.00 0.00 0.00 0.00 0.00 0.00 0.00 0.00 0.00 0.00 0.00 0.00 0.00 0.00 0.00 0.00
0.00 0.00 0.00 0.00 0.00 0.00 0.00 0.00 0.00 0.00 0.00 0.00 0.00 0.00 0.00 0.00 0.02 0.04 0.03 0.02 0.01 0.00 0.00 0.00 0.00 0.00 0.00 0.00 0.00 0.00 0.00 0.00 0.00 0.00 0.00 0.00 0.00 0.00 0.00 0.00 0.00 0.00 0.00 0.00 0.00 0.00 0.00
0.00 0.00 0.00 0.00 0.00 0.00 0.00 0.00 0.00 0.00 0.00 0.00 0.00 0.00 0.00 0.01 0.02 0.01 0.00 0.00 0.00 0.00 0.00 0.00 0.00 0.00 0.00 0.00 0.00 0.00 0.00 0.00 0.00 0.00 0.00 0.00 0.01 0.00 0.00 0.00 0.00 0.00 0.00 0.00 0.00 0.00 0.00
0.00 0.00 0.00 0.00 0.00 0.00 0.00 0.00 0.00 0.00 0.00 0.00 0.00 0.00 0.00 0.02 0.03 0.03 0.00 0.00 0.00 0.00 0.02 0.00 0.00 0.00 0.00 0.00 0.00 0.00 0.00 0.00 0.00 0.00 0.00 0.00 0.01 0.00 0.01 0.03 0.02 0.00 0.00 0.00 0.00 0.00 0.00
0.00 0.00 0.00 0.00 0.00 0.00 0.00 0.00 0.00 0.00 0.00 0.00 0.00 0.00 0.01 0.04 0.05 0.02 0.02 0.00 0.00 0.01 0.08 0.01 0.00 0.00 0.00 0.00 0.00 0.00 0.00 0.00 0.00 0.00 0.00 0.00 0.00 0.01 0.02 0.02 0.01 0.02 0.00 0.00 0.00 0.00 0.00
0.00 0.00 0.00 0.00 0.00 0.00 0.00 0.00 0.00 0.00 0.00 0.00 0.00 0.00 0.01 0.02 0.00 0.01 0.00 0.00 0.00 0.04 0.10 0.00 0.00 0.00 0.00 0.00 0.00 0.00 0.00 0.00 0.00 0.00 0.00 0.00 0.00 0.00 0.02 0.02 0.02 0.02 0.00 0.01 0.00 0.00 0.00
0.00 0.00 0.00 0.00 0.00 0.00 0.00 0.00 0.00 0.00 0.00 0.00 0.01 0.02 0.03 0.03 0.00 0.00 0.00 0.00 0.01 0.09 0.06 0.00 0.00 0.00 0.00 0.00 0.00 0.00 0.00 0.00 0.00 0.06 0.06 0.01 0.03 0.01 0.00 0.00 0.03 0.02 0.01 0.00 0.00 0.00 0.01
0.01 0.01 0.01 0.01 0.01 0.00 0.00 0.00 0.00 0.00 0.03 0.05 0.04 0.03 0.02 0.00 0.00 0.00 0.00 0.02 0.15 0.17 0.02 0.00 0.00 0.00 0.00 0.00 0.00 0.00 0.00 0.00 0.00 0.03 0.04 0.03 0.06 0.02 0.00 0.00 0.00 0.03 0.04 0.07 0.07 0.03 0.01
0.02 0.01 0.02 0.03 0.04 0.02 0.01 0.00 0.00 0.00 0.01 0.04 0.04 0.03 0.02 0.00 0.01 0.02 0.06 0.13 0.15 0.02 0.00 0.00 0.00 0.00 0.00 0.00 0.00 0.00 0.00 0.00 0.00 0.00 0.03 0.05 0.02 0.00 0.00 0.00 0.01 0.00 0.01 0.03 0.04 0.02 0.01
0.01 0.02 0.03 0.04 0.04 0.03 0.03 0.02 0.00 0.00 0.00 0.01 0.02 0.01 0.02 0.04 0.05 0.06 0.13 0.18 0.08 0.02 0.00 0.00 0.00 0.00 0.00 0.00 0.00 0.00 0.00 0.01 0.00 0.00 0.01 0.00 0.00 0.00 0.00 0.00 0.00 0.02 0.00 0.00 0.01 0.01 0.00
0.01 0.03 0.05 0.06 0.07 0.05 0.02 0.03 0.01 0.00 0.00 0.00 0.00 0.01 0.02 0.02 0.03 0.04 0.08 0.03 0.00 0.00 0.00 0.00 0.00 0.00 0.00 0.00 0.00 0.00 0.00 0.00 0.00 0.00 0.00 0.00 0.01 0.00 0.00 0.00 0.00 0.00 0.00 0.01 0.02 0.01 0.00
0.01 0.03 0.06 0.07 0.07 0.05 0.00 0.01 0.01 0.00 0.00 0.00 0.00 0.01 0.01 0.01 0.05 0.07 0.04 0.00 0.00 0.00 0.00 0.00 0.00 0.00 0.00 0.00 0.00 0.00 0.00 0.00 0.00 0.00 0.00 0.00 0.00 0.00 0.00 0.00 0.00 0.00 0.01 0.03 0.03 0.02 0.02
0.01 0.01 0.06 0.17 0.15 0.07 0.00 0.01 0.02 0.00 0.00 0.00 0.00 0.02 0.01 0.03 0.07 0.04 0.01 0.00 0.00 0.00 0.00 0.00 0.00 0.00 0.00 0.00 0.01 0.00 0.00 0.00 0.00 0.00 0.00 0.00 0.00 0.00 0.00 0.00 0.00 0.00 0.00 0.01 0.02 0.02 0.02
0.01 0.01 0.05 0.30 0.33 0.21 0.02 0.00 0.02 0.01 0.00 0.01 0.02 0.02 0.05 0.05 0.05 0.01 0.00 0.00 0.00 0.00 0.00 0.00 0.00 0.00 0.00 0.00 0.00 0.02 0.00 0.00 0.00 0.00 0.00 0.00 0.00 0.00 0.00 0.00 0.00 0.00 0.00 0.00 0.00 0.00 0.00
0.01 0.02 0.07 0.29 0.37 0.33 0.09 0.01 0.00 0.01 0.01 0.02 0.02 0.04 0.12 0.11 0.02 0.01 0.01 0.00 0.00 0.00 0.00 0.00 0.01 0.00 0.00 0.00 0.00 0.00 0.00 0.00 0.00 0.00 0.00 0.00 0.00 0.00 0.00 0.00 0.00 0.00 0.00 0.00 0.00 0.00 0.00
0.02 0.02 0.05 0.27 0.32 0.27 0.09 0.01 0.00 0.01 0.02 0.03 0.02 0.01 0.02 0.03 0.02 0.01 0.01 0.00 0.00 0.00 0.00 0.00 0.01 0.01 0.01 0.00 0.00 0.00 0.00 0.00 0.00 0.00 0.00 0.00 0.00 0.00 0.00 0.00 0.00 0.00 0.00 0.00 0.00 0.00 0.00
0.04 0.02 0.01 0.19 0.27 0.33 0.12 0.01 0.00 0.04 0.04 0.05 0.03 0.01 0.00 0.00 0.00 0.01 0.02 0.01 0.01 0.01 0.00 0.00 0.01 0.01 0.01 0.02 0.00 0.00 0.00 0.00 0.00 0.00 0.00 0.00 0.00 0.00 0.00 0.00 0.00 0.00 0.00 0.00 0.00 0.00 0.00
0.04 0.01 0.01 0.08 0.17 0.26 0.15 0.01 0.00 0.04 0.04 0.04 0.03 0.01 0.00 0.00 0.01 0.01 0.02 0.00 0.01 0.01 0.00 0.00 0.01 0.00 0.00 0.00 0.00 0.00 0.00 0.00 0.00 0.00 0.00 0.00 0.00 0.00 0.00 0.00 0.00 0.00 0.00 0.00 0.00 0.00 0.00
0.01 0.00 0.01 0.07 0.16 0.13 0.06 0.01 0.00 0.01 0.01 0.04 0.04 0.02 0.02 0.02 0.00 0.01 0.00 0.00 0.01 0.01 0.00 0.00 0.00 0.00 0.00 0.00 0.00 0.00 0.00 0.00 0.00 0.00 0.00 0.00 0.00 0.00 0.00 0.00 0.00 0.00 0.00 0.00 0.00 0.00 0.00
0.05 0.04 0.05 0.09 0.15 0.13 0.04 0.01 0.00 0.01 0.00 0.03 0.03 0.03 0.04 0.04 0.00 0.01 0.00 0.00 0.01 0.00 0.00 0.00 0.00 0.00 0.00 0.00 0.00 0.00 0.00 0.00 0.00 0.00 0.00 0.00 0.00 0.00 0.00 0.00 0.00 0.00 0.00 0.00 0.00 0.00 0.00
0.16 0.15 0.11 0.12 0.08 0.07 0.01 0.00 0.00 0.00 0.00 0.02 0.01 0.01 0.01 0.04 0.00 0.00 0.00 0.00 0.00 0.00 0.00 0.00 0.00 0.00 0.00 0.00 0.00 0.00 0.00 0.00 0.00 0.00 0.00 0.00 0.00 0.00 0.00 0.00 0.01 0.01 0.00 0.00 0.00 0.02 0.00
0.20 0.19 0.11 0.09 0.04 0.02 0.00 0.00 0.00 0.00 0.00 0.05 0.03 0.00 0.00 0.03 0.00 0.00 0.00 0.00 0.00 0.00 0.00 0.00 0.00 0.00 0.00 0.00 0.00 0.00 0.00 0.00 0.00 0.01 0.00 0.00 0.00 0.00 0.00 0.01 0.02 0.00 0.00 0.00 0.02 0.03 0.00
0.13 0.13 0.03 0.01 0.00 0.00 0.00 0.00 0.00 0.00 0.01 0.05 0.04 0.00 0.00 0.01 0.00 0.00 0.00 0.00 0.00 0.00 0.00 0.00 0.00 0.00 0.00 0.00 0.00 0.00 0.00 0.00 0.00 0.01 0.01 0.01 0.01 0.01 0.01 0.01 0.03 0.00 0.00 0.01 0.02 0.01 0.00
0.07 0.03 0.01 0.00 0.00 0.00 0.01 0.01 0.01 0.01 0.01 0.03 0.02 0.00 0.00 0.00 0.00 0.00 0.00 0.00 0.00 0.00 0.00 0.00 0.00 0.00 0.00 0.00 0.00 0.00 0.00 0.00 0.01 0.01 0.00 0.01 0.02 0.02 0.02 0.02 0.00 0.00 0.00 0.00 0.00 0.01 0.02
MSLP
1017.25 1017.28 1017.12 1017.25 1017.12 1017.15 1017.02 1016.88 1016.68 1016.70 1016.55 1016.37 1016.24 1016.27 1016.11 1015.88 1015.84 1016.17 1016.24 1016.55 1016.85 1017.13 1017.27 1017.46 1017.69 1017.62 1016.82 1014.97 1012.30 1011.31 1011.97 1012.45 1012.24 1011.64 1010.68 1010.10 1009.53 1008.96 1008.03 1006.82 1006.13 1005.28 1004.70 1004.33 1003.64 1003.74 1003.60
1016.91 1016.96 1016.76 1016.72 1016.64 1016.73 1016.66 1016.53 1016.29 1016.12 1016.09 1015.88 1015.75 1015.66 1015.57 1015.66 1015.43 1015.60 1015.99 1016.14 1016.72 1016.95 1017.24 1017.42 1017.42 1017.71 1016.72 1013.45 1010.82 1010.49 1011.23 1011.37 1011.13 1010.90 1010.25 1009.86 1009.24 1008.70 1007.99 1007.62 1006.80 1005.96 1004.70 1004.13 1003.83 1003.32 1003.30
1016.56 1016.52 1016.32 1016.35 1016.19 1016.02 1016.17 1015.98 1015.80 1015.71 1015.51 1015.27 1015.11 1014.92 1015.04 1015.01 1014.87 1015.23 1015.41 1015.96 1016.22 1016.82 1017.07 1017.27 1017.34 1017.03 1015.43 1012.28 1010.90 1010.20 1010.36 1009.98 1010.09 1009.88 1009.34 1009.30 1009.15 1008.95 1008.24 1007.61 1006.88 1006.44 1005.28 1004.24 1003.40 1003.20 1002.84
1016.10 1016.09 1015.94 1015.77 1015.82 1015.42 1015.56 1015.29 1015.20 1015.03 1014.94 1014.72 1014.36 1014.36 1014.23 1014.35 1014.25 1014.65 1015.01 1015.68 1016.19 1016.77 1017.17 1017.27 1017.23 1016.69 1013.38 1011.11 1010.52 1009.83 1009.56 1009.68 1009.90 1009.80 1009.62 1009.54 1009.21 1008.86 1008.67 1008.23 1007.05 1006.30 1005.18 1003.39 1002.32 1002.04 1001.74
1015.67 1015.62 1015.46 1015.34 1015.12 1015.00 1014.95 1014.68 1014.58 1014.31 1014.06 1013.99 1013.74 1013.50 1013.47 1013.54 1013.71 1014.15 1014.71 1015.70 1016.26 1016.78 1017.32 1017.28 1016.84 1015.66 1011.22 1010.65 1010.31 1009.71 1009.58 1009.29 1009.66 1009.93 1009.91 1010.04 1009.74 1009.05 1008.51 1008.05 1007.18 1005.81 1004.21 1002.79 1001.09 1000.67 1000.98
1015.28 1015.04 1014.93 1014.80 1014.57 1014.58 1014.35 1014.15 1013.83 1013.43 1013.13 1013.03 1012.89 1012.59 1012.50 1012.80 1013.06 1013.65 1014.58 1016.00 1016.59 1017.02 1017.16 1016.70 1015.97 1015.56 1010.90 1009.47 1008.56 1009.13 1008.95 1009.43 1009.26 1009.14 1009.66 1009.98 1009.80 1008.81 1007.45 1007.32 1005.60 1005.03 1004.09 1002.26 1001.19 1000.30 1000.56
1014.86 1014.56 1014.48 1014.26 1014.12 1013.88 1013.86 1013.51 1013.09 1012.71 1012.42 1012.01 1011.80 1011.37 1011.70 1012.00 1012.56 1013.63 1014.79 1016.25 1016.75 1016.57 1015.67 1013.23 1011.72 1010.41 1008.78 1007.93 1008.81 1008.69 1008.40 1009.02 1008.85 1008.75 1008.46 1008.79 1008.99 1006.91 1006.94 1006.30 1006.13 1005.42 1004.50 1002.79 1001.02 999.80 1000.24
1014.31 1014.30 1014.04 1013.95 1013.50 1013.24 1013.19 1012.94 1012.53 1011.91 1011.48 1011.07 1010.78 1010.81 1010.91 1011.41 1012.04 1013.19 1013.38 1014.05 1012.91 1012.81 1012.28 1011.60 1010.30 1008.86 1008.68 1008.86 1007.98 1007.71 1007.84 1008.62 1008.17 1007.72 1007.56 1008.27 1007.94 1006.78 1007.01 1007.18 1007.18 1006.65 1005.15 1004.00 1003.15 1001.66 1001.07
1013.78 1013.82 1013.68 1013.47 1012.92 1012.79 1012.44 1012.23 1011.94 1011.31 1010.52 1010.08 1009.86 1009.95 1010.44 1011.04 1012.11 1013.00 1012.98 1012.90 1013.22 1013.14 1012.86 1009.37 1007.77 1006.81 1007.27 1007.91 1006.71 1006.16 1007.24 1007.38 1007.39 1007.08 1007.07 1006.48 1006.39 1007.88 1007.97 1008.31 1009.22 1008.34 1007.17 1005.58 1005.23 1004.12 1002.06
1013.23 1013.21 1012.97 1012.81 1012.58 1012.42 1012.05 1011.46 1011.12 1010.50 1009.61 1009.03 1008.90 1009.24 1010.26 1011.33 1013.04 1012.43 1012.98 1013.16 1013.44 1013.85 1013.06 1007.45 1006.01 1005.19 1005.46 1006.80 1006.26 1005.73 1005.71 1006.11 1006.77 1006.58 1006.95 1006.66 1006.56 1007.60 1008.46 1008.43 1009.15 1009.21 1008.31 1006.90 1006.26 1004.60 1002.19
1012.57 1012.52 1012.50 1012.23 1012.29 1011.96 1011.68 1011.24 1010.57 1009.89 1008.65 1008.32 1008.70 1009.18 1009.94 1010.46 1011.48 1012.16 1012.89 1013.31 1013.86 1014.15 1011.45 1005.44 1004.44 1006.01 1005.48 1005.66 1004.56 1004.02 1004.71 1005.63 1005.98 1006.93 1008.60 1006.70 1007.96 1007.98 1007.46 1007.55 1009.12 1009.06 1008.82 1008.29 1007.09 1005.22 1002.79
1011.87 1011.93 1012.01 1011.87 1011.87 1011.61 1011.47 1011.10 1010.62 1009.38 1008.13 1008.10 1008.41 1009.51 1010.23 1011.21 1011.10 1011.46 1012.57 1013.44 1014.13 1013.45 1008.37 1005.11 1004.94 1005.81 1005.93 1005.20 1004.64 1004.25 1004.99 1005.53 1007.08 1008.19 1009.16 1008.78 1009.28 1008.60 1007.37 1008.56 1009.83 1010.34 1009.78 1008.19 1006.67 1005.23 1003.07
1011.23 1011.40 1011.41 1011.45 1011.51 1011.41 1011.44 1011.20 1010.83 1010.09 1009.11 1008.38 1009.23 1010.01 1010.77 1010.81 1011.00 1011.60 1012.52 1013.46 1013.39 1010.58 1006.89 1004.60 1004.17 1004.99 1005.22 1004.24 1004.25 1004.16 1005.02 1006.12 1007.04 1008.54 1008.53 1008.61 1008.34 1008.93 1008.64 1008.81 1009.37 1010.06 1010.02 1008.49 1006.58 1004.98 1002.68
1010.50 1010.76 1010.75 1010.84 1011.02 1011.21 1011.42 1011.17 1011.18 1010.77 1010.62 1010.34 1010.52 1010.43 1011.33 1011.18 1011.45 1011.82 1012.28 1012.77 1010.67 1006.97 1005.56 1004.34 1004.33 1004.08 1004.25 1003.52 1003.28 1003.45 1004.22 1005.26 1006.28 1006.90 1007.04 1006.95 1006.70 1007.33 1007.67 1007.57 1007.51 1008.01 1008.62 1007.15 1005.16 1004.48 1003.05
1009.86 1010.15 1010.10 1010.17 1010.20 1010.64 1010.86 1011.14 1011.23 1011.14 1011.13 1010.72 1010.59 1011.31 1011.72 1012.16 1012.00 1011.98 1011.90 1010.81 1007.45 1006.89 1005.12 1004.90 1004.81 1004.19 1003.21 1002.92 1002.95 1002.99 1003.52 1004.30 1005.33 1006.26 1006.19 1005.52 1004.63 1004.33 1004.95 1005.50 1005.99 1006.76 1006.34 1005.77 1004.83 1004.31 1003.11
1009.29 1009.43 1009.36 1009.43 1009.54 1009.96 1010.29 1010.66 1010.92 1011.02 1011.04 1011.05 1010.94 1011.73 1012.24 1012.47 1012.32 1012.46 1011.72 1008.79 1006.09 1005.74 1005.57 1005.34 1005.11 1005.39 1003.42 1002.48 1002.75 1002.74 1002.88 1002.99 1004.14 1005.27 1005.37 1005.81 1004.88 1004.17 1004.21 1004.80 1004.71 1004.86 1005.08 1005.23 1005.41 1004.27 1002.68
1008.63 1008.65 1008.73 1008.83 1008.92 1009.19 1009.52 1010.01 1010.41 1010.73 1010.88 1010.79 1010.85 1011.58 1012.49 1012.54 1012.75 1012.37 1009.81 1007.21 1005.87 1005.39 1005.67 1005.43 1004.89 1004.90 1004.50 1003.72 1002.94 1002.66 1002.92 1004.11 1004.58 1005.04 1005.58 1005.85 1005.25 1005.17 1004.88 1004.34 1004.28 1004.15 1004.90 1005.09 1005.24 1004.71 1003.89
1007.91 1008.06 1008.12 1008.35 1008.76 1008.57 1008.93 1009.28 1009.66 1010.39 1010.70 1010.92 1010.20 1011.03 1012.32 1012.56 1012.68 1011.30 1008.69 1006.89 1006.63 1005.67 1005.88 1005.85 1005.66 1005.15 1004.95 1005.02 1004.12 1004.40 1003.67 1004.38 1005.71 1005.44 1005.43 1006.02 1005.82 1004.99 1004.46 1005.18 1005.21 1004.89 1004.13 1004.78 1004.99 1004.81 1005.03
1007.14 1007.29 1007.40 1007.62 1007.94 1008.20 1008.05 1008.72 1009.20 1009.90 1010.26 1009.80 1009.89 1011.04 1012.23 1012.16 1011.02 1009.75 1008.15 1006.96 1006.45 1005.98 1005.74 1006.15 1005.80 1005.57 1005.61 1005.84 1005.47 1005.84 1005.30 1006.66 1006.65 1006.18 1005.75 1006.37 1006.21 1005.08 1004.98 1005.48 1005.10 1004.73 1004.66 1005.05 1005.22 1005.19 1004.59
1006.46 1006.57 1006.69 1006.74 1006.97 1006.99 1007.55 1008.08 1008.65 1009.46 1009.84 1010.49 1009.48 1010.06 1011.61 1011.50 1010.23 1008.50 1007.70 1006.91 1006.29 1006.01 1005.75 1005.92 1006.17 1006.06 1006.27 1006.04 1005.79 1005.97 1006.56 1007.11 1007.20 1007.07 1007.49 1007.28 1006.08 1005.24 1005.13 1004.94 1004.45 1005.23 1005.29 1005.67 1005.99 1005.79 1005.07
1005.61 1005.71 1005.92 1006.14 1006.54 1006.97 1007.18 1007.64 1008.29 1008.89 1009.60 1010.48 1008.86 1007.61 1007.44 1008.56 1008.84 1007.73 1007.17 1006.48 1005.87 1005.58 1005.73 1005.59 1006.08 1006.39 1006.44 1006.34 1006.18 1005.93 1006.38 1007.12 1007.55 1007.87 1007.64 1007.47 1006.71 1006.31 1006.17 1006.12 1005.88 1005.72 1005.62 1005.81 1005.83 1005.89 1005.84
1004.60 1004.84 1005.11 1005.30 1005.33 1005.94 1006.33 1007.08 1007.83 1008.66 1009.49 1009.98 1008.57 1006.82 1006.12 1006.07 1006.77 1007.23 1006.97 1005.92 1005.17 1005.14 1005.04 1005.17 1005.78 1006.16 1006.66 1006.66 1006.32 1005.72 1006.19 1006.53 1006.83 1007.71 1007.44 1007.66 1006.94 1007.13 1006.68 1006.74 1006.70 1006.47 1006.40 1006.34 1006.39 1006.45 1006.59
1003.61 1004.01 1004.37 1004.56 1004.86 1005.47 1005.15 1006.68 1007.43 1008.09 1009.01 1008.82 1007.81 1006.77 1005.97 1005.78 1005.60 1006.20 1005.74 1005.16 1004.78 1005.14 1005.31 1005.55 1006.09 1006.22 1006.61 1007.11 1006.56 1006.11 1006.29 1006.74 1007.01 1007.20 1007.52 1007.85 1007.81 1007.67 1006.92 1007.48 1007.42 1007.24 1007.01 1006.96 1006.98 1006.99 1007.42
1002.77 1003.05 1003.45 1003.77 1004.32 1004.51 1005.36 1006.24 1006.92 1007.84 1008.26 1007.81 1007.59 1007.20 1006.16 1005.17 1005.13 1004.90 1004.84 1004.89 1004.80 1005.16 1005.43 1006.03 1006.57 1006.01 1007.02 1007.41 1007.44 1007.53 1007.58 1007.70 1007.70 1007.81 1007.97 1008.13 1008.09 1008.10 1007.47 1008.16 1007.87 1008.35 1009.03 1009.31 1009.42 1009.32 1009.91
1002.03 1001.87 1002.10 1002.48 1003.31 1004.08 1004.98 1005.90 1006.73 1007.52 1008.11 1008.14 1008.04 1007.27 1006.39 1005.26 1004.34 1004.50 1004.52 1004.44 1004.94 1005.16 1006.15 1006.09 1006.69 1006.73 1007.41 1007.41 1007.29 1007.55 1007.95 1008.11 1008.23 1008.35 1008.43 1008.26 1008.12 1008.08 1008.16 1007.99 1008.22 1009.08 1010.20 1011.20 1011.61 1011.92 1012.95
1001.38 1001.07 1000.41 1001.61 1002.91 1003.92 1004.90 1005.85 1006.65 1007.35 1007.95 1008.39 1008.08 1007.69 1006.91 1005.89 1004.38 1004.17 1004.16 1004.53 1004.79 1005.44 1006.27 1007.24 1007.91 1007.82 1007.58 1007.36 1007.05 1006.64 1006.71 1006.60 1007.72 1008.35 1008.52 1008.87 1008.75 1008.69 1008.65 1008.71 1009.20 1010.72 1011.44 1011.96 1012.99 1013.27 1014.41
1000.70 1000.33 1001.03 1001.88 1002.90 1004.15 1005.08 1005.86 1006.54 1007.30 1007.84 1008.21 1008.19 1007.87 1007.20 1006.35 1005.48 1004.83 1004.79 1004.63 1005.10 1005.33 1005.81 1007.01 1007.71 1008.00 1007.92 1007.63 1007.28 1006.72 1006.64 1006.60 1007.11 1008.00 1009.01 1009.15 1009.37 1009.16 1009.30 1009.76 1011.41 1012.52 1012.55 1013.22 1014.31 1015.68 1015.98
1000.74 1000.99 1001.67 1002.62 1003.54 1004.39 1005.16 1005.85 1006.48 1007.18 1007.74 1008.20 1008.48 1007.77 1007.36 1006.36 1006.41 1005.94 1005.78 1005.66 1005.58 1005.29 1005.64 1006.73 1007.59 1007.74 1007.70 1007.42 1006.74 1006.97 1006.82 1006.95 1007.61 1009.04 1008.91 1009.31 1009.44 1009.74 1009.92 1011.19 1012.52 1013.65 1013.57 1014.87 1016.19 1016.57 1017.16
1000.76 1001.44 1002.25 1003.06 1003.84 1004.59 1005.23 1005.87 1006.38 1006.85 1007.33 1008.12 1007.74 1007.49 1007.35 1006.61 1007.21 1007.29 1007.29 1007.18 1006.90 1006.37 1005.68 1006.84 1006.71 1006.86 1006.96 1006.61 1006.41 1006.51 1006.85 1007.55 1007.94 1008.62 1009.79 1010.30 1010.83 1010.78 1012.31 1013.18 1014.58 1015.14 1015.84 1016.65 1016.85 1017.29 1018.17
Thickness
5592 5594 5597 5597 5600 5602 5606 5608 5612 5613 5616 5619 5620 5620 5623 5626 5625 5623 5624 5622 5621 5619 5618 5616 5613 5614 5624 5635 5650 5663 5663 5658 5659 5665 5667 5666 5665 5666 5664 5680 5685 5685 5692 5698 5705 5702 5701
5583 5584 5588 5590 5593 5595 5597 5599 5604 5608 5610 5614 5614 5616 5616 5616 5619 5616 5615 5616 5610 5608 5606 5605 5605 5602 5611 5627 5659 5661 5655 5655 5655 5657 5659 5661 5659 5665 5664 5663 5667 5676 5684 5688 5694 5694 5695
5572 5574 5579 5581 5585 5588 5589 5592 5595 5599 5603 5607 5609 5611 5609 5610 5611 5608 5608 5605 5603 5597 5596 5595 5594 5597 5608 5632 5646 5650 5651 5653 5654 5652 5651 5654 5656 5649 5654 5650 5664 5661 5660 5673 5683 5684 5684
5563 5565 5569 5573 5574 5581 5582 5586 5588 5592 5594 5598 5603 5603 5605 5603 5604 5600 5597 5593 5589 5585 5583 5583 5584 5587 5611 5635 5638 5643 5644 5642 5641 5642 5639 5639 5639 5637 5632 5640 5645 5643 5651 5651 5678 5681 5688
5553 5556 5559 5563 5567 5570 5573 5576 5579 5584 5588 5590 5594 5597 5598 5597 5595 5592 5587 5578 5575 5571 5568 5569 5575 5583 5615 5626 5624 5631 5630 5626 5624 5622 5622 5618 5614 5613 5620 5612 5612 5630 5624 5643 5668 5685 5677
5540 5545 5548 5552 5557 5559 5564 5567 5572 5577 5581 5584 5587 5591 5592 5589 5588 5583 5577 5563 5557 5553 5557 5561 5567 5565 5605 5612 5624 5619 5620 5610 5605 5603 5598 5592 5586 5594 5612 5599 5595 5615 5620 5644 5648 5673 5660
5526 5533 5536 5541 5545 5549 5550 5556 5563 5569 5572 5578 5581 5586 5585 5583 5579 5572 5563 5547 5543 5542 5551 5582 5593 5602 5607 5614 5610 5605 5602 5594 5590 5584 5577 5578 5566 5591 5598 5602 5603 5609 5611 5625 5652 5669 5647
5513 5516 5523 5527 5534 5538 5541 5545 5552 5560 5565 5571 5575 5576 5576 5573 5570 5559 5556 5551 5560 5555 5566 5572 5584 5598 5595 5586 5589 5593 5584 5572 5570 5569 5575 5556 5546 5589 5587 5580 5572 5580 5590 5601 5618 5632 5624
5500 5503 5508 5513 5521 5525 5532 5536 5540 5549 5558 5563 5567 5568 5565 5562 5552 5546 5546 5546 5538 5533 5525 5576 5590 5599 5586 5574 5584 5590 5566 5568 5562 5560 5565 5561 5569 5558 5557 5551 5534 5549 5557 5575 5574 5586 5606
5484 5488 5494 5499 5505 5510 5516 5526 5530 5539 5549 5556 5560 5559 5551 5544 5531 5537 5532 5529 5523 5510 5496 5579 5583 5593 5588 5569 5564 5582 5577 5567 5556 5557 5556 5553 5569 5549 5538 5536 5530 5519 5547 5555 5556 5570 5579
5469 5473 5478 5484 5488 5496 5501 5510 5519 5527 5540 5546 5546 5546 5540 5535 5530 5524 5520 5512 5506 5493 5503 5582 5586 5577 5574 5562 5572 5580 5583 5562 5554 5545 5528 5551 5537 5534 5539 5547 5530 5527 5535 5530 5538 5553 5581
5455 5458 5460 5467 5473 5480 5484 5493 5500 5514 5528 5530 5532 5526 5522 5515 5519 5517 5506 5498 5488 5485 5511 5552 5566 5554 5550 5555 5558 5567 5563 5560 5545 5523 5509 5520 5516 5523 5539 5529 5515 5512 5512 5528 5542 5552 5551
5438 5441 5446 5450 5454 5462 5467 5474 5481 5490 5503 5511 5508 5505 5502 5504 5506 5500 5492 5484 5475 5495 5539 5545 5553 5552 5550 5554 5551 5552 5546 5534 5530 5506 5514 5516 5518 5509 5516 5510 5511 5503 5496 5509 5519 5532 5550
5421 5425 5429 5433 5438 5443 5446 5455 5460 5466 5471 5478 5480 5485 5482 5487 5487 5485 5482 5474 5487 5537 5537 5546 5544 5550 5545 5554 5555 5551 5543 5531 5533 5526 5522 5518 5518 5516 5516 5515 5515 5512 5505 5521 5527 5529 5547
5406 5409 5413 5418 5423 5426 5431 5434 5441 5446 5449 5458 5463 5462 5463 5465 5468 5471 5471 5483 5513 5513 5534 5527 5529 5532 5546 5550 5552 5548 5541 5534 5530 5526 5520 5528 5536 5546 5539 5535 5530 5513 5520 5539 5539 5548 5553
5388 5392 5398 5401 5407 5408 5413 5419 5425 5428 5435 5438 5444 5442 5443 5447 5451 5453 5458 5493 5517 5520 5520 5517 5513 5510 5531 5545 5543 5543 5541 5545 5533 5527 5532 5518 5520 5539 5538 5535 5537 5533 5539 5526 5527 5533 5551
5367 5373 5378 5383 5390 5394 5396 5403 5411 5413 5418 5424 5430 5431 5427 5431 5433 5436 5476 5501 5508 5513 5510 5508 5513 5508 5515 5524 5538 5540 5538 5524 5526 5523 5520 5515 5520 5515 5522 5527 5524 5534 5525 5527 5528 5534 5542
5349 5353 5358 5363 5369 5379 5382 5387 5396 5399 5404 5407 5423 5427 5415 5418 5423 5434 5472 5489 5485 5496 5496 5496 5499 5501 5504 5506 5518 5514 5526 5518 5510 5516 5512 5510 5508 5511 5521 5516 5519 5523 5533 5527 5513 5530 5524
5335 5340 5345 5352 5361 5371 5376 5378 5382 5386 5392 5404 5407 5406 5400 5407 5432 5441 5465 5477 5480 5482 5486 5483 5487 5492 5495 5491 5493 5484 5502 5489 5492 5502 5507 5502 5498 5510 5510 5511 5517 5521 5526 5524 5522 5523 5526
5326 5330 5337 5346 5357 5370 5371 5372 5375 5375 5379 5382 5402 5405 5389 5395 5416 5446 5454 5462 5468 5475 5478 5479 5473 5480 5479 5483 5490 5484 5476 5476 5481 5486 5474 5484 5502 5511 5508 5512 5520 5504 5509 5509 5504 5501 5516
5321 5326 5332 5339 5348 5358 5364 5367 5368 5370 5370 5370 5395 5416 5428 5416 5418 5443 5450 5459 5463 5466 5471 5475 5467 5467 5469 5467 5474 5478 5478 5472 5474 5467 5476 5483 5486 5496 5497 5496 5498 5500 5502 5501 5499 5501 5495
5320 5324 5331 5337 5349 5357 5363 5363 5363 5361 5361 5363 5387 5415 5431 5440 5438 5432 5433 5449 5465 5466 5470 5469 5464 5464 5460 5456 5466 5474 5474 5476 5475 5471 5478 5477 5486 5483 5489 5489 5488 5488 5492 5494 5495 5496 5495
5321 5324 5330 5339 5350 5355 5366 5360 5359 5359 5359 5365 5387 5404 5420 5426 5437 5428 5438 5454 5461 5457 5458 5459 5455 5456 5451 5445 5461 5469 5471 5471 5472 5473 5472 5468 5469 5471 5484 5477 5478 5480 5486 5490 5493 5494 5487
5321 5327 5334 5343 5349 5359 5360 5358 5357 5356 5360 5373 5383 5392 5408 5423 5429 5436 5444 5449 5451 5448 5446 5446 5442 5452 5446 5446 5449 5452 5455 5457 5461 5463 5465 5459 5461 5464 5477 5467 5464 5465 5461 5457 5456 5465 5456
5324 5335 5344 5354 5355 5357 5358 5357 5355 5354 5357 5366 5371 5387 5401 5411 5436 5436 5439 5445 5440 5441 5430 5441 5436 5442 5439 5443 5446 5442 5442 5444 5446 5452 5454 5462 5465 5462 5459 5474 5475 5459 5442 5418 5416 5427 5403
5332 5344 5361 5360 5356 5356 5355 5352 5352 5353 5356 5359 5369 5377 5390 5403 5429 5436 5438 5437 5434 5429 5425 5419 5419 5427 5435 5439 5446 5451 5452 5470 5449 5446 5456 5452 5457 5459 5463 5461 5462 5429 5431 5431 5411 5425 5394
5342 5354 5356 5357 5356 5352 5350 5349 5350 5351 5353 5356 5363 5372 5384 5390 5410 5421 5425 5431 5430 5432 5431 5422 5418 5419 5427 5428 5433 5448 5453 5467 5458 5448 5434 5441 5441 5449 5457 5460 5423 5410 5423 5416 5409 5398 5378
5344 5349 5350 5350 5350 5348 5347 5348 5349 5350 5351 5354 5357 5369 5380 5392 5396 5406 5412 5417 5423 5434 5430 5426 5418 5419 5424 5427 5445 5440 5448 5457 5451 5422 5444 5442 5447 5447 5463 5448 5437 5406 5415 5403 5378 5375 5368
5346 5347 5346 5346 5345 5344 5345 5346 5348 5350 5352 5352 5361 5368 5376 5390 5387 5390 5393 5400 5407 5417 5432 5421 5429 5431 5436 5446 5450 5453 5445 5441 5442 5438 5427 5426 5415 5431 5416 5410 5384 5386 5376 5371 5374 5371 5359